Time,TemperatureF,DewpointF,PressureIn,WindDirection,WindDirectionDegrees,WindSpeedMPH,WindSpeedGustMPH,Humidity,HourlyPrecipIn,Conditions,Clouds,dailyrainin,SoftwareType,DateUTC
2013-06-16 00:04:00,60.5,44.2,30.00,ESE,113,1.1,1.3,55,0.00,,,0.00,WUHU216HW,2013-06-16 07:04:00,
2013-06-16 00:09:00,60.3,44.0,29.99,East,90,1.3,1.6,55,0.00,,,0.00,WUHU216HW,2013-06-16 07:09:00,
2013-06-16 00:14:00,60.1,44.4,29.99,East,90,1.1,1.6,56,0.00,,,0.00,WUHU216HW,2013-06-16 07:14:00,
2013-06-16 00:19:00,60.1,43.8,30.00,East,90,1.8,1.8,55,0.00,,,0.00,WUHU216HW,2013-06-16 07:19:00,
2013-06-16 00:24:00,60.1,43.4,30.00,East,90,0.9,2.0,54,0.00,,,0.00,WUHU216HW,2013-06-16 07:24:00,
2013-06-16 00:29:00,60.1,42.9,29.99,East,90,0.4,2.0,53,0.00,,,0.00,WUHU216HW,2013-06-16 07:29:00,
2013-06-16 00:34:00,59.8,43.0,30.00,East,90,1.3,1.8,54,0.00,,,0.00,WUHU216HW,2013-06-16 07:34:00,
2013-06-16 00:39:00,59.8,43.0,29.99,East,90,0.4,1.8,54,0.00,,,0.00,WUHU216HW,2013-06-16 07:39:00,
2013-06-16 00:44:00,59.4,43.2,29.99,East,90,1.1,1.1,55,0.00,,,0.00,WUHU216HW,2013-06-16 07:44:00,
2013-06-16 00:49:00,59.2,44.5,29.99,East,90,1.8,1.8,58,0.00,,,0.00,WUHU216HW,2013-06-16 07:49:00,
2013-06-16 00:54:00,59.0,44.7,29.99,ENE,68,1.3,1.8,59,0.00,,,0.00,WUHU216HW,2013-06-16 07:54:00,
2013-06-16 00:59:00,58.9,44.1,29.99,ENE,68,1.1,1.8,58,0.00,,,0.00,WUHU216HW,2013-06-16 07:59:00,
2013-06-16 01:04:00,58.7,44.8,29.99,ENE,68,1.3,1.3,60,0.00,,,0.00,WUHU216HW,2013-06-16 08:04:00,
2013-06-16 01:09:00,58.7,45.7,29.98,ENE,68,1.3,2.2,62,0.00,,,0.00,WUHU216HW,2013-06-16 08:09:00,
2013-06-16 01:14:00,58.7,46.1,29.99,ENE,68,1.6,2.2,63,0.00,,,0.00,WUHU216HW,2013-06-16 08:14:00,
2013-06-16 01:19:00,58.7,46.1,29.98,ENE,68,1.1,2.5,63,0.00,,,0.00,WUHU216HW,2013-06-16 08:19:00,
2013-06-16 01:24:00,58.7,44.8,29.99,ENE,68,0.0,2.5,60,0.00,,,0.00,WUHU216HW,2013-06-16 08:24:00,
2013-06-16 01:29:00,58.3,45.4,29.99,ENE,68,0.2,1.1,62,0.00,,,0.00,WUHU216HW,2013-06-16 08:29:00,
2013-06-16 01:34:00,57.4,45.3,29.99,ENE,68,1.1,1.6,64,0.00,,,0.00,WUHU216HW,2013-06-16 08:34:00,
2013-06-16 01:39:00,57.1,46.2,29.99,ENE,68,1.1,1.8,67,0.00,,,0.00,WUHU216HW,2013-06-16 08:39:00,
2013-06-16 01:44:00,56.9,46.0,29.99,ENE,68,1.1,1.8,67,0.00,,,0.00,WUHU216HW,2013-06-16 08:44:00,
2013-06-16 01:49:00,56.9,45.2,29.98,ENE,68,0.4,1.6,65,0.00,,,0.00,WUHU216HW,2013-06-16 08:49:00,
2013-06-16 01:54:00,56.5,45.6,29.98,ENE,68,1.1,1.1,67,0.00,,,0.00,WUHU216HW,2013-06-16 08:54:00,
2013-06-16 01:59:00,56.0,45.2,29.99,ENE,68,0.0,1.1,67,0.00,,,0.00,WUHU216HW,2013-06-16 08:59:00,
2013-06-16 02:04:00,55.8,46.3,29.99,ENE,68,1.1,1.1,70,0.00,,,0.00,WUHU216HW,2013-06-16 09:04:00,
2013-06-16 02:09:00,55.4,45.1,30.00,ENE,68,0.0,1.6,68,0.00,,,0.00,WUHU216HW,2013-06-16 09:09:00,
2013-06-16 02:14:00,55.6,45.3,29.99,ENE,68,0.0,1.6,68,0.00,,,0.00,WUHU216HW,2013-06-16 09:14:00,
2013-06-16 02:19:00,55.4,45.9,29.99,ENE,68,0.0,0.4,70,0.00,,,0.00,WUHU216HW,2013-06-16 09:19:00,
2013-06-16 02:24:00,55.4,45.5,30.00,ENE,68,0.0,0.4,69,0.00,,,0.00,WUHU216HW,2013-06-16 09:24:00,
2013-06-16 02:29:00,55.4,45.1,30.00,ENE,68,0.4,0.9,68,0.00,,,0.00,WUHU216HW,2013-06-16 09:29:00,
2013-06-16 02:34:00,55.6,45.3,30.00,East,90,0.9,1.3,68,0.00,,,0.00,WUHU216HW,2013-06-16 09:34:00,
2013-06-16 02:39:00,55.6,45.3,30.00,East,90,0.9,1.3,68,0.00,,,0.00,WUHU216HW,2013-06-16 09:39:00,
2013-06-16 02:44:00,55.6,44.8,30.00,East,90,0.0,1.1,67,0.00,,,0.00,WUHU216HW,2013-06-16 09:44:00,
2013-06-16 02:49:00,55.6,44.4,30.00,East,90,0.0,1.1,66,0.00,,,0.00,WUHU216HW,2013-06-16 09:49:00,
2013-06-16 02:54:00,55.3,43.7,30.00,East,90,0.0,0.0,65,0.00,,,0.00,WUHU216HW,2013-06-16 09:54:00,
2013-06-16 02:59:00,55.1,43.9,30.00,East,90,0.0,0.0,66,0.00,,,0.00,WUHU216HW,2013-06-16 09:59:00,
2013-06-16 03:04:00,54.9,44.6,30.00,East,90,0.0,0.0,68,0.00,,,0.00,WUHU216HW,2013-06-16 10:04:00,
2013-06-16 03:09:00,54.5,43.8,30.00,East,90,0.0,0.2,67,0.00,,,0.00,WUHU216HW,2013-06-16 10:09:00,
2013-06-16 03:14:00,54.4,43.2,30.00,East,90,0.0,0.2,66,0.00,,,0.00,WUHU216HW,2013-06-16 10:14:00,
2013-06-16 03:19:00,54.4,44.0,30.00,East,90,0.7,0.7,68,0.00,,,0.00,WUHU216HW,2013-06-16 10:19:00,
2013-06-16 03:24:00,54.4,43.2,30.00,East,90,0.0,0.7,66,0.00,,,0.00,WUHU216HW,2013-06-16 10:24:00,
2013-06-16 03:29:00,54.4,42.9,30.00,East,90,0.0,0.7,65,0.00,,,0.00,WUHU216HW,2013-06-16 10:29:00,
2013-06-16 03:34:00,54.4,42.9,30.00,East,90,0.0,0.0,65,0.00,,,0.00,WUHU216HW,2013-06-16 10:34:00,
2013-06-16 03:39:00,54.0,42.5,30.00,East,90,0.0,0.0,65,0.00,,,0.00,WUHU216HW,2013-06-16 10:39:00,
2013-06-16 03:44:00,54.0,42.5,30.00,East,90,0.0,0.7,65,0.00,,,0.00,WUHU216HW,2013-06-16 10:44:00,
2013-06-16 03:49:00,54.0,42.0,30.00,East,90,0.2,0.7,64,0.00,,,0.00,WUHU216HW,2013-06-16 10:49:00,
2013-06-16 03:54:00,54.0,42.0,30.01,East,90,0.0,0.4,64,0.00,,,0.00,WUHU216HW,2013-06-16 10:54:00,
2013-06-16 03:59:00,54.2,42.2,30.00,East,90,0.0,0.4,64,0.00,,,0.00,WUHU216HW,2013-06-16 10:59:00,
2013-06-16 04:04:00,54.2,42.2,30.00,East,90,0.0,0.4,64,0.00,,,0.00,WUHU216HW,2013-06-16 11:04:00,
2013-06-16 04:09:00,54.4,42.4,30.01,East,90,0.0,0.0,64,0.00,,,0.00,WUHU216HW,2013-06-16 11:09:00,
2013-06-16 04:14:00,54.2,41.9,30.01,East,90,0.0,0.0,63,0.00,,,0.00,WUHU216HW,2013-06-16 11:14:00,
2013-06-16 04:19:00,54.0,42.0,30.00,East,90,0.0,0.0,64,0.00,,,0.00,WUHU216HW,2013-06-16 11:19:00,
2013-06-16 04:24:00,53.8,42.3,30.00,ENE,68,1.1,1.8,65,0.00,,,0.00,WUHU216HW,2013-06-16 11:24:00,
2013-06-16 04:29:00,53.6,41.8,30.00,ENE,68,0.7,1.8,64,0.00,,,0.00,WUHU216HW,2013-06-16 11:29:00,
2013-06-16 04:34:00,53.5,41.6,30.00,ENE,68,1.1,1.1,64,0.00,,,0.00,WUHU216HW,2013-06-16 11:34:00,
2013-06-16 04:39:00,53.1,41.6,30.00,ENE,68,0.4,1.1,65,0.00,,,0.00,WUHU216HW,2013-06-16 11:39:00,
2013-06-16 04:44:00,52.7,41.3,30.00,ENE,68,0.0,1.3,65,0.00,,,0.00,WUHU216HW,2013-06-16 11:44:00,
2013-06-16 04:49:00,52.6,41.5,30.00,East,90,1.3,1.6,66,0.00,,,0.00,WUHU216HW,2013-06-16 11:49:00,
2013-06-16 04:54:00,52.2,41.6,30.00,East,90,0.4,1.8,67,0.00,,,0.00,WUHU216HW,2013-06-16 11:54:00,
2013-06-16 04:59:00,52.0,41.0,30.00,East,90,0.2,1.8,66,0.00,,,0.00,WUHU216HW,2013-06-16 11:59:00,
2013-06-16 05:04:00,51.5,41.3,30.01,SE,135,2.2,2.2,68,0.00,,,0.00,WUHU216HW,2013-06-16 12:04:00,
2013-06-16 05:08:00,51.3,41.1,30.01,SE,135,0.0,2.2,68,0.00,,,0.00,WUHU216HW,2013-06-16 12:08:00,
2013-06-16 05:13:00,50.6,40.9,30.01,SE,135,1.1,1.8,69,0.00,,,0.00,WUHU216HW,2013-06-16 12:13:00,
2013-06-16 05:18:00,50.4,41.0,30.01,SE,135,1.1,1.8,70,0.00,,,0.00,WUHU216HW,2013-06-16 12:18:00,
2013-06-16 05:23:00,50.4,40.7,30.01,SE,135,1.1,1.8,69,0.00,,,0.00,WUHU216HW,2013-06-16 12:23:00,
2013-06-16 05:28:00,50.0,40.7,30.01,SE,135,1.3,1.3,70,0.00,,,0.00,WUHU216HW,2013-06-16 12:28:00,
2013-06-16 05:33:00,50.0,40.7,30.01,SE,135,0.7,1.3,70,0.00,,,0.00,WUHU216HW,2013-06-16 12:33:00,
2013-06-16 05:38:00,50.2,40.5,30.01,SE,135,0.0,1.3,69,0.00,,,0.00,WUHU216HW,2013-06-16 12:38:00,
2013-06-16 05:43:00,50.4,40.2,30.01,SE,135,0.0,0.7,68,0.00,,,0.00,WUHU216HW,2013-06-16 12:43:00,
2013-06-16 05:48:00,50.4,39.9,30.01,SE,135,0.9,0.9,67,0.00,,,0.00,WUHU216HW,2013-06-16 12:48:00,
2013-06-16 05:53:00,50.2,40.1,30.01,SE,135,0.9,1.8,68,0.00,,,0.00,WUHU216HW,2013-06-16 12:53:00,
2013-06-16 05:58:00,50.2,40.5,30.01,SE,135,0.0,1.8,69,0.00,,,0.00,WUHU216HW,2013-06-16 12:58:00,
2013-06-16 06:03:00,50.2,40.1,30.02,SE,135,0.0,0.9,68,0.00,,,0.00,WUHU216HW,2013-06-16 13:03:00,
2013-06-16 06:08:00,50.2,40.5,30.02,SE,135,0.4,1.1,69,0.00,,,0.00,WUHU216HW,2013-06-16 13:08:00,
2013-06-16 06:13:00,50.4,40.7,30.02,SE,135,0.4,1.1,69,0.00,,,0.00,WUHU216HW,2013-06-16 13:13:00,
2013-06-16 06:18:00,50.4,40.2,30.02,SE,135,0.0,0.9,68,0.00,,,0.00,WUHU216HW,2013-06-16 13:18:00,
2013-06-16 06:23:00,50.4,40.2,30.02,SE,135,0.0,0.2,68,0.00,,,0.00,WUHU216HW,2013-06-16 13:23:00,
2013-06-16 06:28:00,50.8,41.1,30.01,SE,135,0.0,0.0,69,0.00,,,0.00,WUHU216HW,2013-06-16 13:28:00,
2013-06-16 06:33:00,51.3,41.1,30.02,SE,135,0.0,0.0,68,0.00,,,0.00,WUHU216HW,2013-06-16 13:33:00,
2013-06-16 06:38:00,52.0,42.2,30.02,SE,135,0.2,0.7,69,0.00,,,0.00,WUHU216HW,2013-06-16 13:38:00,
2013-06-16 06:43:00,53.1,42.9,30.03,SE,135,0.0,0.7,68,0.00,,,0.00,WUHU216HW,2013-06-16 13:43:00,
2013-06-16 06:48:00,54.7,43.6,30.02,SE,135,0.0,0.0,66,0.00,,,0.00,WUHU216HW,2013-06-16 13:48:00,
2013-06-16 06:53:00,56.0,43.6,30.03,SE,135,0.0,0.0,63,0.00,,,0.00,WUHU216HW,2013-06-16 13:53:00,
2013-06-16 06:58:00,56.7,43.8,30.02,SE,135,0.0,0.2,62,0.00,,,0.00,WUHU216HW,2013-06-16 13:58:00,
2013-06-16 07:03:00,56.2,42.9,30.02,SE,135,1.1,1.1,61,0.00,,,0.00,WUHU216HW,2013-06-16 14:03:00,
2013-06-16 07:08:00,55.4,42.6,30.02,SE,135,0.4,1.1,62,0.00,,,0.00,WUHU216HW,2013-06-16 14:08:00,
2013-06-16 07:13:00,55.1,42.7,30.03,SE,135,0.0,1.1,63,0.00,,,0.00,WUHU216HW,2013-06-16 14:13:00,
2013-06-16 07:18:00,55.1,42.7,30.03,SE,135,0.4,0.4,63,0.00,,,0.00,WUHU216HW,2013-06-16 14:18:00,
2013-06-16 07:23:00,55.8,43.4,30.03,SE,135,0.9,1.1,63,0.00,,,0.00,WUHU216HW,2013-06-16 14:23:00,
2013-06-16 07:28:00,58.0,44.7,30.03,SE,135,0.4,1.1,61,0.00,,,0.00,WUHU216HW,2013-06-16 14:28:00,
2013-06-16 07:33:00,62.1,47.2,30.02,SE,135,0.7,1.8,58,0.00,,,0.00,WUHU216HW,2013-06-16 14:33:00,
2013-06-16 07:38:00,64.4,45.8,30.02,SE,135,0.4,1.8,51,0.00,,,0.00,WUHU216HW,2013-06-16 14:38:00,
2013-06-16 07:43:00,64.1,45.6,30.02,South,180,2.5,2.5,51,0.00,,,0.00,WUHU216HW,2013-06-16 14:43:00,
2013-06-16 07:48:00,64.1,45.6,30.02,SSW,203,2.5,2.5,51,0.00,,,0.00,WUHU216HW,2013-06-16 14:48:00,
2013-06-16 07:53:00,64.1,45.6,30.02,SSW,203,2.5,2.5,51,0.00,,,0.00,WUHU216HW,2013-06-16 14:53:00,
2013-06-16 09:04:00,66.1,47.4,30.04,SW,225,3.8,3.8,51,0.00,,,0.00,WUHU216HW,2013-06-16 16:04:00,
2013-06-16 11:04:00,73.3,46.0,30.03,WNW,293,3.6,3.6,38,0.00,,,0.00,WUHU216HW,2013-06-16 18:04:00,
2013-06-16 12:04:00,75.6,45.1,30.03,NNW,338,3.6,3.6,34,0.00,,,0.00,WUHU216HW,2013-06-16 19:04:00,
2013-06-16 14:04:00,83.2,45.4,30.00,NW,315,4.0,4.0,27,0.00,,,0.00,WUHU216HW,2013-06-16 21:04:00,
2013-06-16 15:04:00,81.4,44.9,29.99,North,0,3.4,3.4,28,0.00,,,0.00,WUHU216HW,2013-06-16 22:04:00,
2013-06-16 15:59:00,77.4,47.4,29.97,West,270,5.8,12.8,35,0.00,,,0.00,WUHU216HW,2013-06-16 22:59:00,
2013-06-16 16:04:00,77.6,47.6,29.98,WNW,293,7.4,12.8,35,0.00,,,0.00,WUHU216HW,2013-06-16 23:04:00,
2013-06-16 16:09:00,77.9,48.0,29.98,NW,315,9.8,13.2,35,0.00,,,0.00,WUHU216HW,2013-06-16 23:09:00,
2013-06-16 16:14:00,78.3,49.8,29.98,West,270,13.4,17.0,37,0.00,,,0.00,WUHU216HW,2013-06-16 23:14:00,
2013-06-16 16:19:00,77.9,50.2,29.99,WSW,248,10.1,17.0,38,0.00,,,0.00,WUHU216HW,2013-06-16 23:19:00,
2013-06-16 16:24:00,79.0,48.9,29.99,West,270,10.5,15.9,35,0.00,,,0.00,WUHU216HW,2013-06-16 23:24:00,
2013-06-16 16:29:00,78.7,50.9,30.00,WNW,293,6.5,12.3,38,0.00,,,0.00,WUHU216HW,2013-06-16 23:29:00,
2013-06-16 16:34:00,79.9,51.2,29.99,West,270,8.9,13.4,37,0.00,,,0.00,WUHU216HW,2013-06-16 23:34:00,
2013-06-16 16:39:00,78.1,50.4,29.99,WSW,248,9.8,13.4,38,0.00,,,0.00,WUHU216HW,2013-06-16 23:39:00,
2013-06-16 16:44:00,79.9,51.2,29.99,West,270,6.3,11.9,37,0.00,,,0.00,WUHU216HW,2013-06-16 23:44:00,
2013-06-16 16:49:00,80.5,49.4,29.99,WNW,293,9.4,13.4,34,0.00,,,0.00,WUHU216HW,2013-06-16 23:49:00,
2013-06-16 16:54:00,81.4,49.3,29.99,SW,225,7.6,13.4,33,0.00,,,0.00,WUHU216HW,2013-06-16 23:54:00,
2013-06-16 16:59:00,80.6,49.5,30.00,West,270,6.9,13.9,34,0.00,,,0.00,WUHU216HW,2013-06-16 23:59:00,
2013-06-16 17:04:00,79.2,49.1,29.99,NNW,338,5.8,14.5,35,0.00,,,0.00,WUHU216HW,2013-06-17 00:04:00,
2013-06-16 17:09:00,77.4,49.0,30.00,West,270,11.4,14.5,37,0.00,,,0.00,WUHU216HW,2013-06-17 00:09:00,
2013-06-16 17:14:00,76.5,49.0,30.00,WNW,293,6.5,15.0,38,0.00,,,0.00,WUHU216HW,2013-06-17 00:14:00,
2013-06-16 17:19:00,76.7,49.2,30.00,West,270,17.0,17.0,38,0.00,,,0.00,WUHU216HW,2013-06-17 00:19:00,
2013-06-16 17:24:00,76.9,49.2,30.00,WNW,293,9.2,17.0,38,0.00,,,0.00,WUHU216HW,2013-06-17 00:24:00,
2013-06-16 17:29:00,76.5,49.0,30.01,SW,225,7.6,17.0,38,0.00,,,0.00,WUHU216HW,2013-06-17 00:29:00,
2013-06-16 17:39:00,76.5,49.0,30.02,WSW,248,6.5,14.8,38,0.00,,,0.00,WUHU216HW,2013-06-17 00:39:00,
2013-06-16 17:45:00,75.8,48.3,30.03,WSW,248,9.8,14.8,38,0.00,,,0.00,WUHU216HW,2013-06-17 00:45:00,
2013-06-16 17:59:00,74.3,49.7,30.03,WNW,293,7.6,10.5,42,0.00,,,0.00,WUHU216HW,2013-06-17 00:59:00,
2013-06-16 18:05:00,73.1,48.6,30.04,SW,225,8.5,8.5,42,0.00,,,0.00,WUHU216HW,2013-06-17 01:05:00,
2013-06-16 18:10:00,72.4,47.9,30.03,WNW,293,10.3,15.0,42,0.00,,,0.00,WUHU216HW,2013-06-17 01:10:00,
2013-06-16 18:15:00,70.0,51.6,30.03,WSW,248,6.9,15.0,52,0.00,,,0.00,WUHU216HW,2013-06-17 01:15:00,
2013-06-16 18:20:00,70.2,49.0,30.04,WNW,293,4.5,11.9,47,0.00,,,0.00,WUHU216HW,2013-06-17 01:20:00,
2013-06-16 18:30:00,70.4,49.2,30.04,West,270,10.1,10.3,47,0.00,,,0.00,WUHU216HW,2013-06-17 01:30:00,
2013-06-16 18:35:00,70.4,49.2,30.04,West,270,6.7,10.3,47,0.00,,,0.00,WUHU216HW,2013-06-17 01:35:00,
2013-06-16 18:40:00,70.4,49.2,30.04,WNW,293,5.6,8.7,47,0.00,,,0.00,WUHU216HW,2013-06-17 01:40:00,
2013-06-16 18:49:00,70.6,48.7,30.05,WSW,248,4.0,6.0,46,0.00,,,0.00,WUHU216HW,2013-06-17 01:49:00,
2013-06-16 18:54:00,70.6,48.7,30.05,WSW,248,3.8,6.3,46,0.00,,,0.00,WUHU216HW,2013-06-17 01:54:00,
2013-06-16 18:59:00,70.6,47.5,30.05,WSW,248,9.6,9.6,44,0.00,,,0.00,WUHU216HW,2013-06-17 01:59:00,
2013-06-16 19:04:00,70.4,47.9,30.05,WSW,248,4.9,9.6,45,0.00,,,0.00,WUHU216HW,2013-06-17 02:04:00,
2013-06-16 19:09:00,70.2,47.2,30.06,West,270,4.9,8.9,44,0.00,,,0.00,WUHU216HW,2013-06-17 02:09:00,
2013-06-16 19:14:00,70.0,47.0,30.06,SSW,203,6.9,8.9,44,0.00,,,0.00,WUHU216HW,2013-06-17 02:14:00,
2013-06-16 19:24:00,69.8,47.4,30.06,WSW,248,4.9,10.1,45,0.00,,,0.00,WUHU216HW,2013-06-17 02:24:00,
2013-06-16 19:29:00,69.7,47.3,30.06,WSW,248,4.3,8.7,45,0.00,,,0.00,WUHU216HW,2013-06-17 02:29:00,
2013-06-16 19:39:00,70.6,46.9,30.06,WNW,293,4.3,5.1,43,0.00,,,0.00,WUHU216HW,2013-06-17 02:39:00,
2013-06-16 19:49:00,71.1,46.8,30.06,WNW,293,2.9,7.4,42,0.00,,,0.00,WUHU216HW,2013-06-17 02:49:00,
2013-06-16 19:59:00,70.9,46.0,30.07,WNW,293,7.2,7.2,41,0.00,,,0.00,WUHU216HW,2013-06-17 02:59:00,
2013-06-16 20:04:00,70.7,45.3,30.07,WSW,248,4.3,7.2,40,0.00,,,0.00,WUHU216HW,2013-06-17 03:04:00,
2013-06-16 20:14:00,69.3,44.6,30.07,WSW,248,7.4,8.1,41,0.00,,,0.00,WUHU216HW,2013-06-17 03:14:00,
2013-06-16 20:19:00,68.8,44.6,30.07,West,270,2.7,8.1,42,0.00,,,0.00,WUHU216HW,2013-06-17 03:19:00,
2013-06-16 20:29:00,68.0,44.7,30.07,WSW,248,2.5,7.6,43,0.00,,,0.00,WUHU216HW,2013-06-17 03:29:00,
2013-06-16 20:34:00,68.0,44.0,30.07,SW,225,2.5,7.6,42,0.00,,,0.00,WUHU216HW,2013-06-17 03:34:00,
2013-06-16 20:44:00,67.7,43.8,30.07,WNW,293,2.0,2.0,42,0.00,,,0.00,WUHU216HW,2013-06-17 03:44:00,
2013-06-16 20:49:00,67.5,44.1,30.08,WNW,293,1.1,2.2,43,0.00,,,0.00,WUHU216HW,2013-06-17 03:49:00,
2013-06-16 20:59:00,67.0,43.7,30.08,SW,225,0.4,2.2,43,0.00,,,0.00,WUHU216HW,2013-06-17 03:59:00,
2013-06-16 21:04:00,66.6,43.3,30.08,SW,225,0.7,1.1,43,0.00,,,0.00,WUHU216HW,2013-06-17 04:04:00,
2013-06-16 21:14:00,66.1,43.5,30.08,WNW,293,1.1,1.3,44,0.00,,,0.00,WUHU216HW,2013-06-17 04:14:00,
2013-06-16 21:19:00,65.9,43.3,30.08,WNW,293,0.7,2.5,44,0.00,,,0.00,WUHU216HW,2013-06-17 04:19:00,
2013-06-16 21:24:00,65.5,43.5,30.08,NNW,338,0.7,2.5,45,0.00,,,0.00,WUHU216HW,2013-06-17 04:24:00,
2013-06-16 21:34:00,65.2,43.2,30.09,NNW,338,2.0,3.4,45,0.00,,,0.00,WUHU216HW,2013-06-17 04:34:00,
2013-06-16 21:39:00,65.0,43.6,30.09,NNW,338,3.6,3.6,46,0.00,,,0.00,WUHU216HW,2013-06-17 04:39:00,
2013-06-16 21:49:00,64.4,44.2,30.10,WNW,293,2.5,8.7,48,0.00,,,0.00,WUHU216HW,2013-06-17 04:49:00,
2013-06-16 21:54:00,64.4,44.2,30.10,SW,225,2.5,8.7,48,0.00,,,0.00,WUHU216HW,2013-06-17 04:54:00,
2013-06-16 21:59:00,64.4,44.8,30.10,SW,225,4.3,6.3,49,0.00,,,0.00,WUHU216HW,2013-06-17 04:59:00,